Voltar ao catálogo

STARLINK-3907

AtivoComunicaçõesVLEO
NORAD 52501·PAYLOAD·🇺🇸 United States

Lançado May 6, 2022 de Cape Canaveral Space Force Station

Loading…

Próximas Passagens (próximas 24 horas)

TLE

AtualizadoSource: CelesTrak SupGP

Época: Sep 15, 2026, 01:33 UTC

1 52501C 22049BC  26258.06506944  .00005590  00000+0  16959-3 0  2586
2 52501  53.1577 269.4606 0001336  87.4474 198.0242 15.33549699    14

Acompanhe STARLINK-3907 em tempo real com AllMySat

Download on the App Store